[Date Prev][Date Next][Thread Prev][Thread Next][Date Index][Thread Index]

[jamsat-news:577] jas2info3 #40


=========================   最新情報   ===========================

        Last updated :Sat,28− June−97 20:30 (JST) #40

================================================================
   
     衛星情報 FOシリーズの軌道要素、テレメトリ、QSOの状況等をま
   とめてみました.

  1)FO−29(ふじ3号)は6月28日(土)の18 :18(JST)のパスではJDディジ
     タルモードの9600bpsから、JAアナログモードに変わり、JARLのスケジュール
     どうりに運用されています. 
    
  ・軌道要素1:「jamsatーkeps:598」より
                SB KEPS @ AMSAT  $ORBS-178.N
                2Line Orbital Elements 178.AMSAT

      HR AMSAT ORBITAL ELEMENTS FOR AMATEUR SATELLITES IN NASA FORMAT
      FROM WA5QGD FORT WORTH,TX June 27, 1997
      SEND SUBSCRIBE/UNSUBSCRIBE TO listserv@amsat.org ONLY
      BID: ORBS-178.N
             

   DECODE 2-LINE ELSETS WITH THE FOLLOWING KEY:
  1 AAAAAU 00  0  0 BBBBB.BBBBBBBB  .CCCCCCCC  00000-0  00000-00 
    DDDZ
  2 AAAAA EEE.EEEE FFF.FFFF GGGGGGG HHH.HHHH III.IIII JJ.JJJJJJJJ
    KKKKKZ
  KEY: A-CATALOGNUM B-EPOCHTIME C-DECAY D-ELSETNUM E-INCLINATION 
       F-RAAN
  G-ECCENTRICITY H-ARGPERIGEE I-MNANOM J-MNMOTION K-ORBITNUM 
       Z-CHECKSUM
   FO-29
  1 24278U 96046B   97177.09135984  .00000037  00000-0  71781-4 0 01099
  2 24278 098.5388 217.1087 0351631 163.0142 198.3121 13.52632679042328
 
  ・軌道要素:「jamsatーkeps:599」より
            SB KEPS @ AMSAT  $ORBS-178.O
            Orbital Elements  178.OSCAR

     HR AMSAT ORBITAL ELEMENTS FOR OSCAR SATELLITES
     FROM WA5QGD FORT WORTH,TX June 27, 1997
     SEND SUBSCRIBE/UNSUBSCRIBE TO listserv@amsat.org ONLY
     BID: ORBS-178.O
     TO ALL RADIO AMATEURS BT

  Satellite: FO-29
  Catalog number: 24278
  Epoch time:      97177.09135984
  Element set:    0109
  Inclination:      098.5388 deg
  RA of node:       217.1087 deg
  Eccentricity:    0.0351631
  Arg of perigee:   163.0142 deg
  Mean anomaly:     198.3121 deg
  Mean motion:   13.52632679 rev/day
  Decay rate:        3.7e-07 rev/day^2
  Epoch rev:           04232
  Checksum:              318
 -----------------------------------------------------------
   *FO−29 のFMデジトーカについて
 
  1) [jamsat-2544]にJA3CFの岩崎好宏さんが投稿されてます、
      一部ですがご紹介します.
  
   久しぶりにFO-29のデジトーカがオンになっているという情報で受信
  してみました。「This is JAS-2」という女性の声に続いてウグイスが
  「ホーホケキョ」とひとこと鳴きます.

   このデジトーカが人気があるのでスケジュールを変更しているそう
  ですので、ここに最新情報をお届けします.(内容は入門者向け)
 ----------------------------------------------------------
          「ふじ3号」デジトーカ受信キット

                   (社)日本アマチュア無線連盟
                      技術研究所

  岩崎 好宏     JA3CF    E-mail <ja3cf@jamsat.or.jp>
          URL <http://www.asahi-net.or.jp/~pt5y-iwsk>

 2) [jamsat-bb 2549]にデジトーカの受信状況をJA6BXの江崎昌男氏が
   投稿されてますのでご紹介します.

   既報の「うぐいすの声」デジトーカーをハンディ機で室内受信を試みました.
 
     4/4日 20:25JST前後のパスでしたが、約8分間ハンディ機付
   属の短縮ホイップでもメリット5で入感していました。 「ホーホケキョ」の
   周波数帯域が特にハンディ機のオーディオ特性にも相性がよいようです. 
  信号強度も去年の9月にデジトーカー運用の初期に比べると安定して、
   強力になったように感じられます.

     アマチュア無線や、衛星通信に無関係の人たちに聞かせてあげるのにもっ
   てこいのデモンストレーションと言えます.

 使用機:STANDARD C520 
 アンテナ:付属の短縮型ホイップ
 受信場所:福岡市南区(PM53EN)木造家屋の二階
 天候:雨
                                                       以 上
    73, de JA6BX - Y. Esaki 34122731@people.or.jp 
                         or, ja6bx@jamsat.or.jp
                             ja6bx@amsat.org  
---------------------------------------------------------------  
 *FO−29(ふじ3号)の6月28日(土)のJAアナログモードで運用中のTNC解読に
    よるテレメトリの一部分です.
    (熊本市)

    AS4264C  28June97
    JST 20:00 ー 20:19
    Freq. 435.805 ー787 MHz    USB    RS 57〜9

  HI HI B6 C7 81 D5 03 DE 0A 1A 01 45 3A 95 76 60 92 90 B0 7A B8 B6 B8 B8 B4
  HI HI B6 C7 81 D5 03 DE 0A 1A 01 45 43 93 72 60 92 90 B0      B8 B6 B7 B8 B4 
  HI HI B6 C7 81 D5 03 DE 0A 1A 01 45 8B 97 74 60 92 65 B0 75 B8 B6 B8 B8 B4
  HI HI B6 C7 81 D5 03 DE 0A 1A 01 45 9D 9C 70 60 92 90 B0 86 B8 B6 B8 B8 B4 
  HI HI B6 C7 81 D5 03 DE 0A 1A 01 45 6E 98 75 60 83 90 B9 6A B8 B6 B8 B8 B4 
  HI HI B6 C7 81 D5 03 DE 0A 1A 01 45 3  98 7B 60 93 90 B0 7   B8 B6 B7 B7 B4
  HI HI B6 C7 81 D5 03 DE 0A 1A 01 45 3F 99 7C 60 93 90 B0 80 B8 B6 B7 B7 B4
  HI HI B6 C7 81 D5 03 DE 0A 1A 01 45 8D 95 78 60 93 90 B0 64 B8 B6 B7 B8 B4 
  HI HI B6 C7 81 D5 03 DE 0A 1A 01 45 A9 95 B5 60 93 90 B0    B8 B6 B7 B7 B4
  HI HI B6 C7 81 D
=====================================================================
 2)FO-20(ふじ2号): JAモードの運用で順調に作動しています.
     アナログモードにてのQSOや思わぬDXが楽しめます.

  ・軌道要素1 :出典は「ふじ3号」に同じ.   
 
    FO-20
 1 20480U 90013C   97176.92033719 -.00000005  00000-0  63659-4 0 09787
 2 20480 099.0470 136.8667 0541062 357.7035 002.1598 12.83238711345823

  ・軌道要素2 :出典は「ふじ3号」に同じ.   
 
  Satellite: FO-20
  Catalog number: 20480
  Epoch time:      97176.92033719
  Element set:    0978
  Inclination:      099.0470 deg
  RA of node:       136.8667 deg
  Eccentricity:    0.0541062
  Arg of perigee:   357.7035 deg
  Mean anomaly:     002.1598 deg
  Mean motion:   12.83238711 rev/day
  Decay rate:       -5.0e-08 rev/day^2
  Epoch rev:           34582
  Checksum:              319
   -------------------------------------------------------
 *FO−20 JAモードでRS 59程度で(受信感度はアンテナより
   見て約125db)非常に強力な信号で受信できています。衛星の
   現在の状態を符号化し、知らせるビーコン波にのっているテレメトリ
   です.
    6月28日(土) JST  15 :15 のパスの 一部分です。
   (TNCで解読)
   AS34608C  27June97      CW   RS 59+10db
   JST 13:40 - 13:54            Freq.435.804 〜 .786MHz 

   HI HI 152 148 169 170 285 284 253 262 352 353 
           354 354 401 435 400 500 500 530 500 500 
   HI HI 145 148 169 170 285 284 252 262 352 353 
           354 354 401 435 402 400 500 530 500 500 
   HI HI 139 148 169 1I 1 285 284 252 262 352 353 
           354 354 401 435 402 400 585 530 500 546 
   HI HI 137 148 169 171 285 284 253 262 352 353 
           354 354 401 435 402 400 500 530 500 500 
   HI HI 138 148 170 171 285 284 252 262 352 353 
           354 354 401 435 402 400 500 530 500 500
 -----------------------------------------------------------------
 *FOー20のJAモードでアナログQSO

   [jamsat-bb:2429]に投稿されたJA6BX局江崎昌男氏のQSOの状況です.

     2/12日の18:02JSTに、UA4NM Kirov の VladさんとFO-20経由でQSO
   しました.
  当方はLOS寸前で、当局のCWでのCQに答えてくれたものですが、FO-20で
  は初めてのUA4です.
  * 後日、江崎氏のコメント:                                  
    昨日QSOできたUA4NMは1987年にAO−10でQSOしていま
  すが、FO−20/29のような低軌道衛星では、昨年のOH5LK以来の
  DXで、大変うれしく思います.
                                      73, de JA6BX - Y. Esaki 34122731@people.or.jp 
                                                                         or, ja6bx@jamsat.or.jp          
=========================   JARL運用情報   =========================

   JARL News 6月号を見ていたら、16ページに「ふじ3号」の運用スケジュ
  ールが載っていました.

        ■ ふじ3号 ■ の運用予定
   6月27日(金)  00:11(09:11) JAアナログモード
   7月  4日(金)  09:13(18:13) デジカート
          8日(火)  09:06(18:06) JAアナログモード
 *切替時刻はUTCで表示しています.カッコ内の時刻は
   日本時間JSTです.なお、都合により運用モードを変更
   する場合があります.
   JA:アナログ系運用
   JD:ディジタル系運用
       *1200bps PSK   メールボックス運用(SSB)
       *9600bps FSK   メールボックス運用(FM)
       *デジトーカ         FM音声メッセージ送信

        ■ ふじ2号 ■
    「ふじ2号」はアナログ系の連続運用とします.   
 
                                                以上「JARL NEWS 6月号より」
  *9600bpsはFSKでした、当局の転記ミスで、JH1QQN局飯野氏
    よりご指摘頂き、ここに訂正致します.(JH6MME)
 
 =============   JAS-2 (ふじ3号)と現在までの情報   ===========
  
  A.電話によるふじ3号の運用情報
      社団法人日本アマチュア連盟によるサービス
               TEL No.   03− 3942 − 1000
   6月21日(土)現在#70のJDモード9600bpsのディジタル
   運用を継続とスケジュール変更はTELサービスで連絡のアナウンスが
   流れています.

  B.アマチュア無線FAXサービス
      JARLによるふじ3号の軌道情報(オービットカレンダー)
         FAX No.  03− 3233 −0055 

  C.WWWブラウザで情報を簡単に見れる人のためにJAS−2
     ふじ3号の衛星としての運用されるまでの名前)の概要、打ち上げ
     までの状況、運用中における状況を説明したホームページを紹介し
     ておきます.

    1)社団法人日本アマチュア無線連盟(JARL)のホームページ
          http://www.jarl.or.jp/jarl/jas-2/index.htm
               (1997.7.1より新ホームページで登場予定)        

    2)宇宙開発事業団(NASDA)ホームページ 
          http://www.nasda.go.jp/
         打上げ衛星 :地球観測プラットフォーム技術衛星(ADEOS) 
                       アマチュア衛星3号(JAS-2)
          http://yyy.tksc.nasda.go.jp/Home/Press/Press-j/jas-2_j.html
                                                       
  D.JAMSATによる軌道情報の活用
        JAMSATのホームページまたはjamsat−kepsの軌道要素より
      衛星の軌道情報を得る.
      
            JAMSATホームページURL    http://www.jamsat.or.jp

       上記ホームページでは各地で行われるアマチュア衛星に関する
      ミューティングのお知らせや世界のアマチュア衛星に関する情報が
      満載されています.

 =====================  その他 の情報  =========================
      
  *FO−29「ふじ3号」のデジタル系テレメトリの解読 (4 )

    JARL NEWSの4月号20ページからのテレメトリーのフレーム
      フォーマットに従い、4月18日(金)の最後の1200bpsのテレ
      メトリーを解読してみましょう.
       1)フレーム0
          8J1JCS>BEACON [04/18/97  09:43:54] <UI C>:
          JAS-2    '97/04/18 00:41:07
           9C 03 63 08 00 FC 00 00 00 00
           00 00 46 8D 10 7D 60 92 90 B0
           AB 52 A8 02 F0 B2 B6 B6 B3 B5
          
        2)フレーム1
           8J1JCS>BEACON [04/18/97  09:43:55] <UI C>:
           D5 02 00 09 00 00 85 40 00 00
           2D 49 3C 4E 7B B3 B5 82 7C 81
           00 00 00 A7 82 B3 F7 00 00 00
      
        まずフレーム0かフレーム1かの判定をしてみると各フレームの最初
        の16進数を2進数に変えて最下位の桁を調べてみます.
             16進数   9C             1001 1100  で最後が 
                                                   0でフレーム0 
             16進数  D5             1101 0101  で最後が
                                                    1でフレーム1

        フレームの取り方は間違いないようですね.

        ・アナログデーターを見てみましょう. フレーム0の分かりやすい
          太陽電池の発生電流をみてみます、テレメトリー出力位置はF0:
          フレーム0、15(4A):
           左の表の15の位置、このフレームをアナログCWテレメトリーと
          同様に置き換えると
              フレーム0:
                1A  1B  1C  1D  1E
                2A  2B  2C  2D  2E
                3A  3B  3C  3D  3E
                4A  4B  4C  4D  4E
                5A  5B  5C  5D  5E
                6A  6B  6C  6D  6E
       となり、15の位置は4Aの位置に相当します.
       フレーム0から15の位置には16進数7Dがあります、16進数の
      7Dは10進数に変換すると125になります.(変換方法はこの
      シリーズの(2)を見てください.)
                     I = 0.009804×125
                       = 1.2255 [A]          1225.5 [mA]
      となります. 
        これをCWテレメトリと比較してみましょう、ただし衛星の軌道に
      よりかなり違ってきます.
        同様にして他のデータも解読してみましょう.
      次回はも少しアナログデータについて解読してみましょう.
     
      JARLのホームページの中の             
          http://www.kt.rim.or.jp/~jr1nvu/tlmindx.html
      にもテレメトリの解読法についてアナログとデジタルで分かりやすく解説して
    あります.
   ---------------------------------------------------------------
       JAMSATのメンバーのご協力に よりJH6MME(高山 秀造)が
    執筆・編集を担当しております.ご指摘の意見、疑問やこのように
    したらというアイデアがありましたら小さなことでもかまいませんので
    気軽に下記アドレスまでご連絡ください.jamsat−newsからjas2info
    への転載をJH1QQN局飯野さんに担当して頂いております.
                                   Eーmail :   jh6mme@jamsat.or.jp : jh1qqn@jamsat.or.jp             
  ==============================   END  ==========================